星链-11577 (STARLINK-11577)

导读

STARLINK-11577是美国于2025年2月15日发射的星链系列卫星,隶属于SpaceX打造的星链卫星互联网星座项目。星链项目旨在为全球提供高速低延迟卫星互联网服务,该卫星入轨后,将进一步扩展星链星座的全球覆盖范围,提升星座网络的服务能力与稳定性,助力服务覆盖盲区的网络接入需求。

基本信息
目录编号:
63013
目录名称:
STARLINK-11577
国际标识:
2025-032J
轨道中心:
EARTH
卫星名称:
星链-11577
卫星全名:
星链-11577 (STARLINK-11577)
卫星状态:
在轨 (已飞行484 天)
发射日期:
2025-02-15 UTC
国别 :
美国 (US)
星等 :
--
轨道信息
数据来源 国际轨道数据
星历时间: 2026-06-14T05:30:29+0800
19小时前
查看轨道信息
半长轴: 6734.376km
偏心率: 0.0001888
轨道倾角: 42.999°
近地点辐角 267.835°
升交点赤经 335.524°
平近点角 92.230°
近地点: 354.967km
远地点: 357.511km
周期: 91.665分钟
每日圈数: 15.709296
详细信息
固有亮度:
5
最大亮度:
2.5
卫星平台:
Starlink V1.0
覆盖范围:
全球
运营商:
太空探索技术公司
运营商所在国:
美国
制造商(研发单位):
太空探索技术公司
制造商所在国:
美国
使用方式:
暂无
卫星简介
Starlink 计划是 SpaceX 推出的全球卫星互联网项目,通过发射低轨道卫星,为全球尤其是偏远地区提供高速、低延迟的互联网服务。自 2019 年起,Starlink 已部署数千颗卫星,旨在缩小全球数字鸿沟,推动互联网普及。该项目还为军事、航空等行业提供通信支持,带来广泛经济效益。
2D轨道图
3D轨道图
轨道高度分析图
轨道倾角分析图
轨道综合分析图
查看轨道综合分析图